sat.trackr.live / text

‹ back to catalog

STARLINK-35391

NORAD 66616 · 2025-270AE

PAYLOAD ACTIVE UNKNOWN

§ Identity

Operator
Country
US
Launch date
2025-11-22
Launch site
AFETR
Launch vehicle
Mass (kg)
RCS (m²)

Purposes: comms

External: N2YO · Heavens-Above · Gunter

§ Orbital elements

Epoch: 2026-05-24T20:51:09.644832Z

Period
94.27 min
Inclination
43.0028°
Eccentricity
0.0001297
Mean motion
15.27578808 rev/d
Perigee alt
482.2 km
Apogee alt
483.9 km
Semi-major
6,861.2 km
B*
4.8946e-4
RAAN
346.2026°
Arg perigee
281.4259°
Mean anomaly
78.6447°
Rev number
2,946

§ Raw data

STARLINK-353911 66616U 25270AE  26144.86886163  .00013230  00000+0  48946-3 0  99962 66616  43.0028 346.2026 0001297 281.4259  78.6447 15.27578808 29465

JSON: /api/v1/satellites/66616 · /tle

For live sub-satellite position, see the globe view (requires WebGL).

§ Visibility from observer

Set your observer location to see the next 7 days of passes ≥ 10°. The values pass through the URL so the page stays shareable.

No JS? Fill the form by hand. The geolocation button needs JavaScript.